Regional Weather Roundup
Issued by NWS Albany, NY

Home | Current Version | Previous Version | Text Only | Print | Product List | Glossary On
Versions: 1 2 3 4 5 6 7 8 9 10 11 12 13 14 15 16 17 18 19 20 21 22 23 24 25 26 27 28 29 30 31 32 33 34 35 36 37 38 39 40 41 42 43 44 45 46 47 48 49 50
000
ASUS41 KALY 292210
RWRALY

NEW YORK STATE HOURLY WEATHER ROUNDUP
NATIONAL WEATHER SERVICE ALBANY NY
600 PM EDT SAT AUG 29 2015

NOTE: "FAIR" INDICATES FEW OR NO CLOUDS BELOW 12,000 FEET WITH NO
SIGNIFICANT WEATHER AND/OR NO OBSTRUCTIONS TO VISIBILITY.

NYZ032-033-038>043-046>054-057>066-NYZ062>081-292300-
EAST


CITY           SKY/WX    TMP DP  RH WIND       PRES   REMARKS
ALBANY         PTSUNNY   79  58  48 SE5       30.08F
GLENS FALLS    PTSUNNY   77  60  55 S9        30.06F
POUGHKEEPSIE   MOSUNNY   83  57  41 SW7       30.08F
NEWBURGH       MOSUNNY   81  59  47 VRB5      30.12S
MONTGOMERY     MOSUNNY   81  61  50 W3        30.10S
WHITE PLAINS   MOSUNNY   79  59  50 SE12      30.11S
ISLIP          PTSUNNY   78  59  51 S9        30.10F
NEW YORK CITY  MOSUNNY   81  59  47 S17       30.10S
CENTRAL PARK   SUNNY     81  59  47 VRB5      30.13S
$$

NYZ005>009-017-018-044>046-055-056-292300-
CENTRAL


CITY           SKY/WX    TMP DP  RH WIND       PRES   REMARKS
FULTON         CLOUDY    72  60  66 NW3       30.11S
SYRACUSE       CLOUDY    74  61  63 NW7       30.09S
ROME           PTSUNNY   75  59  57 W9        30.10S
ELMIRA         MOSUNNY   80  57  45 W6        30.09F
BINGHAMTON     MOSUNNY   74  60  61 SW6       30.13F
MONTICELLO     SUNNY     75  61  60 S8        30.15F
$$

NYZ026>034-041>043-292300-
NORTH


CITY           SKY/WX    TMP DP  RH WIND       PRES   REMARKS
WATERTOWN      CLOUDY    70  61  73 W6        30.09F
FORT DRUM      NOT AVBL
MASSENA        CLOUDY    72  57  59 SW9       30.08S
SARANAC LAKE   PTSUNNY   72  56  57 W6        30.10S
PLATTSBURGH    PTSUNNY   76  60  57 VRB3      30.05F
$$

NYZ001>004-010>016-019>021-292300-
WEST


CITY           SKY/WX    TMP DP  RH WIND       PRES   REMARKS
NIAGARA FALLS  CLOUDY    75  58  55 S6        30.09S
BUFFALO        PTSUNNY   76  55  48 SW7       30.09F
DUNKIRK        MOSUNNY   74  55  51 N5        30.11R
JAMESTOWN      MOSUNNY   75  54  46 W6        30.13S
WELLSVILLE     MOSUNNY   75  56  51 NE5       30.16F
ROCHESTER      PTSUNNY   75  59  57 CALM      30.11S
PENN YAN       PTSUNNY   76  62  62 VRB5      30.12F
$$

             KEY
       WCI = WIND CHILL INDEX
       VSB = VISIBILITY
       HX  = HEAT INDEX
$$


USA.gov is the U.S. government's official web portal to all federal, state and local government web resources and services.